| time (UTC) | temp C | wind direction | speed KPH | gust KPH | rain 1hr cm | rain 24hr cm | rain mn cm | humidity % | barometer mb |
| 20260504130506 | 16 | 219 | 9.7 | 17.7 | 0.00 | 0.00 | 0.00 | 47 | 999.9 |
| 20260504110506 | 11 | 238 | 4.8 | 14.5 | 0.00 | 0.00 | 0.00 | 55 | 1000.6 |
| 20260504100502 | 11 | 226 | 6.4 | 11.3 | 0.00 | 0.00 | 0.00 | 53 | 1001.2 |
| 20260504082007 | 11 | 229 | 1.6 | 6.4 | 0.00 | 0.00 | 0.00 | 55 | 1002.4 |
| 20260504081527 | 10 | 210 | 1.6 | 4.8 | 0.00 | 0.00 | 0.00 | 56 | 1002.5 |
| 20260504081007 | 10 | 226 | 3.2 | 4.8 | 0.00 | 0.00 | 0.00 | 56 | 1002.5 |
| 20260504080510 | 10 | 223 | 1.6 | 4.8 | 0.00 | 0.00 | 0.00 | 56 | 1002.5 |
| 20260504050506 | 8 | 184 | 0.0 | 0.0 | 0.00 | 0.00 | 0.00 | 66 | 1005.1 |
| 20260504050018 | 8 | 184 | 0.0 | 0.0 | 0.00 | 0.00 | 0.00 | 66 | 1005.1 |
| 20260504045511 | 8 | 184 | 0.0 | 0.0 | 0.00 | 0.00 | 0.00 | 67 | 1005.1 |
| 20260504045006 | 8 | 184 | 0.0 | 1.6 | 0.00 | 0.00 | 0.00 | 66 | 1005.3 |
| 20260504044526 | 8 | 133 | 0.0 | 1.6 | 0.00 | 0.00 | 0.00 | 67 | 1005.3 |
| 20260504044011 | 8 | 133 | 0.0 | 1.6 | 0.00 | 0.00 | 0.00 | 66 | 1005.4 |
| 20260504043509 | 8 | 141 | 0.0 | 0.0 | 0.00 | 0.00 | 0.00 | 66 | 1005.4 |
| 20260504043028 | 8 | 141 | 0.0 | 0.0 | 0.00 | 0.00 | 0.00 | 66 | 1005.5 |
| 20260504042509 | 8 | 141 | 0.0 | 0.0 | 0.00 | 0.00 | 0.00 | 65 | 1005.6 |
| 20260504042010 | 8 | 141 | 0.0 | 0.0 | 0.00 | 0.00 | 0.00 | 65 | 1005.6 |
| 20260504041530 | 8 | 141 | 0.0 | 1.6 | 0.00 | 0.00 | 0.00 | 64 | 1005.6 |
| 20260504041011 | 9 | 141 | 0.0 | 1.6 | 0.00 | 0.00 | 0.00 | 63 | 1005.7 |
| 20260504040513 | 9 | 139 | 0.0 | 1.6 | 0.00 | 0.00 | 0.00 | 62 | 1005.8 |
| 20260504040017 | 9 | 139 | 0.0 | 0.0 | 0.00 | 0.00 | 0.00 | 62 | 1005.9 |
| 20260504035507 | 10 | 139 | 0.0 | 0.0 | 0.00 | 0.00 | 0.00 | 59 | 1005.9 |
| 20260504035008 | 10 | 139 | 0.0 | 1.6 | 0.00 | 0.00 | 0.00 | 60 | 1006.1 |
| 20260504034520 | 10 | 139 | 0.0 | 1.6 | 0.00 | 0.00 | 0.00 | 65 | 1006.2 |
| 20260504034007 | 10 | 141 | 0.0 | 1.6 | 0.00 | 0.00 | 0.00 | 64 | 1006.3 |
| 20260504033508 | 10 | 149 | 0.0 | 0.0 | 0.00 | 0.00 | 0.00 | 60 | 1006.3 |
| 20260504033025 | 10 | 149 | 0.0 | 0.0 | 0.00 | 0.00 | 0.00 | 55 | 1006.4 |
| 20260504032509 | 11 | 149 | 0.0 | 0.0 | 0.00 | 0.00 | 0.00 | 53 | 1006.4 |
| 20260504032015 | 11 | 149 | 0.0 | 0.0 | 0.00 | 0.00 | 0.00 | 51 | 1006.4 |
| 20260504031528 | 11 | 149 | 0.0 | 0.0 | 0.00 | 0.00 | 0.00 | 50 | 1006.4 |
| 20260504031010 | 11 | 149 | 0.0 | 0.0 | 0.00 | 0.00 | 0.00 | 49 | 1006.5 |
| 20260504030511 | 11 | 149 | 0.0 | 0.0 | 0.00 | 0.00 | 0.00 | 52 | 1006.5 |
| 20260504030038 | 11 | 149 | 0.0 | 0.0 | 0.00 | 0.00 | 0.00 | 52 | 1006.4 |
| 20260504025510 | 11 | 149 | 0.0 | 0.0 | 0.00 | 0.00 | 0.00 | 52 | 1006.4 |
| 20260504025010 | 11 | 149 | 0.0 | 3.2 | 0.00 | 0.00 | 0.00 | 53 | 1006.5 |
| 20260504024519 | 11 | 149 | 0.0 | 3.2 | 0.00 | 0.00 | 0.00 | 56 | 1006.4 |
| 20260504024007 | 12 | 150 | 1.6 | 3.2 | 0.00 | 0.00 | 0.00 | 54 | 1006.4 |
| 20260504023507 | 12 | 251 | 0.0 | 0.0 | 0.00 | 0.00 | 0.00 | 52 | 1006.4 |
| 20260504023024 | 13 | 277 | 0.0 | 0.0 | 0.00 | 0.00 | 0.00 | 43 | 1006.4 |
| 20260504022503 | 13 | 277 | 0.0 | 0.0 | 0.00 | 0.00 | 0.00 | 43 | 1006.4 |
| 20260504022004 | 13 | 277 | 0.0 | 0.0 | 0.00 | 0.00 | 0.00 | 43 | 1006.4 |
| 20260504021504 | 13 | 277 | 0.0 | 0.0 | 0.00 | 0.00 | 0.00 | 41 | 1006.4 |
| 20260504021003 | 13 | 277 | 0.0 | 0.0 | 0.00 | 0.00 | 0.00 | 40 | 1006.4 |
| 20260504020502 | 14 | 277 | 0.0 | 0.0 | 0.00 | 0.00 | 0.00 | 40 | 1006.4 |
| 20260504020012 | 15 | 277 | 0.0 | 0.0 | 0.00 | 0.00 | 0.00 | 40 | 1006.5 |
| 20260504015502 | 15 | 277 | 0.0 | 0.0 | 0.00 | 0.00 | 0.00 | 38 | 1006.5 |
| 20260504015006 | 15 | 277 | 0.0 | 0.0 | 0.00 | 0.00 | 0.00 | 37 | 1006.5 |
| 20260504014516 | 15 | 277 | 0.0 | 0.0 | 0.00 | 0.00 | 0.00 | 37 | 1006.5 |
| 20260504014009 | 16 | 277 | 0.0 | 0.0 | 0.00 | 0.00 | 0.00 | 36 | 1006.5 |
| 20260504013508 | 16 | 278 | 0.0 | 1.6 | 0.00 | 0.00 | 0.00 | 35 | 1006.5 |
| 20260504013019 | 17 | 278 | 0.0 | 1.6 | 0.00 | 0.00 | 0.00 | 34 | 1006.5 |
| 20260504012510 | 17 | 283 | 0.0 | 1.6 | 0.00 | 0.00 | 0.00 | 33 | 1006.5 |
| 20260504012015 | 17 | 283 | 0.0 | 1.6 | 0.00 | 0.00 | 0.00 | 33 | 1006.5 |
| 20260504011504 | 17 | 283 | 0.0 | 3.2 | 0.00 | 0.00 | 0.00 | 33 | 1006.5 |
| 20260504011005 | 18 | 292 | 0.0 | 3.2 | 0.00 | 0.00 | 0.00 | 32 | 1006.5 |
| 20260504010501 | 18 | 282 | 0.0 | 8.0 | 0.00 | 0.00 | 0.00 | 32 | 1006.5 |
| 20260504010009 | 18 | 291 | 1.6 | 11.3 | 0.00 | 0.00 | 0.00 | 32 | 1006.5 |
| 20260504005504 | 18 | 307 | 6.4 | 11.3 | 0.00 | 0.00 | 0.00 | 31 | 1006.6 |
| 20260504005003 | 19 | 304 | 4.8 | 9.7 | 0.00 | 0.00 | 0.00 | 32 | 1006.6 |
| 20260504004519 | 19 | 293 | 6.4 | 16.1 | 0.00 | 0.00 | 0.00 | 31 | 1006.6 |
| 20260504004011 | 19 | 297 | 6.4 | 16.1 | 0.00 | 0.00 | 0.00 | 31 | 1006.7 |
| 20260504003506 | 20 | 295 | 6.4 | 16.1 | 0.00 | 0.00 | 0.00 | 30 | 1006.7 |
| 20260504003027 | 20 | 298 | 9.7 | 16.1 | 0.00 | 0.00 | 0.00 | 29 | 1006.6 |
| 20260504002506 | 20 | 301 | 11.3 | 16.1 | 0.00 | 0.00 | 0.00 | 29 | 1006.7 |
| 20260504002010 | 20 | 302 | 11.3 | 17.7 | 0.00 | 0.00 | 0.00 | 28 | 1006.6 |
| 20260504001519 | 20 | 295 | 12.9 | 19.3 | 0.00 | 0.00 | 0.00 | 28 | 1006.5 |
| 20260504001008 | 20 | 295 | 11.3 | 19.3 | 0.00 | 0.00 | 0.00 | 29 | 1006.6 |
| 20260504000508 | 20 | 294 | 9.7 | 14.5 | 0.00 | 0.00 | 0.00 | 29 | 1006.5 |
| 20260504000025 | 20 | 268 | 6.4 | 17.7 | 0.00 | 0.00 | 0.00 | 29 | 1006.5 |
| 20260503235504 | 20 | 280 | 6.4 | 17.7 | 0.00 | 0.00 | 0.00 | 29 | 1006.6 |
| 20260503235004 | 21 | 278 | 11.3 | 17.7 | 0.00 | 0.00 | 0.00 | 29 | 1006.6 |
| 20260503234525 | 21 | 293 | 8.0 | 16.1 | 0.00 | 0.00 | 0.00 | 29 | 1006.8 |
| 20260503234005 | 21 | 299 | 9.7 | 17.7 | 0.00 | 0.00 | 0.00 | 28 | 1006.7 |
| 20260503233504 | 21 | 319 | 9.7 | 22.5 | 0.00 | 0.00 | 0.00 | 28 | 1006.7 |
| 20260503233012 | 21 | 290 | 11.3 | 25.7 | 0.00 | 0.00 | 0.00 | 28 | 1006.7 |
| 20260503232506 | 21 | 298 | 11.3 | 25.7 | 0.00 | 0.00 | 0.00 | 28 | 1006.7 |
| 20260503232006 | 21 | 309 | 11.3 | 19.3 | 0.00 | 0.00 | 0.00 | 30 | 1006.6 |
| 20260503231519 | 21 | 297 | 9.7 | 22.5 | 0.00 | 0.00 | 0.00 | 30 | 1006.7 |
| 20260503231013 | 21 | 337 | 12.9 | 27.4 | 0.00 | 0.00 | 0.00 | 30 | 1006.7 |
| 20260503230512 | 21 | 319 | 17.7 | 25.7 | 0.00 | 0.00 | 0.00 | 27 | 1006.7 |
| 20260503230022 | 21 | 283 | 11.3 | 19.3 | 0.00 | 0.00 | 0.00 | 29 | 1006.9 |
| 20260503225511 | 21 | 294 | 11.3 | 24.1 | 0.00 | 0.00 | 0.00 | 27 | 1006.9 |
| 20260503225012 | 21 | 326 | 11.3 | 24.1 | 0.00 | 0.00 | 0.00 | 31 | 1006.9 |
| 20260503224527 | 21 | 289 | 16.1 | 24.1 | 0.00 | 0.00 | 0.00 | 29 | 1006.8 |
| 20260503224002 | 21 | 308 | 16.1 | 24.1 | 0.00 | 0.00 | 0.00 | 28 | 1006.7 |
| 20260503223514 | 21 | 291 | 9.7 | 22.5 | 0.00 | 0.00 | 0.00 | 28 | 1006.6 |
| 20260503223012 | 21 | 307 | 14.5 | 25.7 | 0.00 | 0.00 | 0.00 | 28 | 1006.7 |
| 20260503222503 | 21 | 308 | 17.7 | 27.4 | 0.00 | 0.00 | 0.00 | 28 | 1006.6 |
| 20260503222004 | 21 | 299 | 16.1 | 27.4 | 0.00 | 0.00 | 0.00 | 27 | 1006.7 |
| 20260503221516 | 22 | 301 | 14.5 | 32.2 | 0.00 | 0.00 | 0.00 | 29 | 1006.7 |
| 20260503221010 | 22 | 295 | 19.3 | 32.2 | 0.00 | 0.00 | 0.00 | 30 | 1006.6 |
| 20260503220506 | 21 | 305 | 19.3 | 25.7 | 0.00 | 0.00 | 0.00 | 27 | 1006.6 |
| 20260503220038 | 22 | 309 | 16.1 | 25.7 | 0.00 | 0.00 | 0.00 | 28 | 1006.7 |
| 20260503215509 | 21 | 314 | 17.7 | 29.0 | 0.00 | 0.00 | 0.00 | 28 | 1006.6 |
| 20260503215008 | 21 | 311 | 20.9 | 30.6 | 0.00 | 0.00 | 0.00 | 28 | 1006.6 |
| 20260503214524 | 21 | 302 | 16.1 | 32.2 | 0.00 | 0.00 | 0.00 | 29 | 1006.6 |
| 20260503214009 | 22 | 317 | 22.5 | 32.2 | 0.00 | 0.00 | 0.00 | 27 | 1006.7 |
| 20260503213514 | 22 | 320 | 20.9 | 30.6 | 0.00 | 0.00 | 0.00 | 29 | 1006.8 |
| 20260503213027 | 21 | 302 | 14.5 | 24.1 | 0.00 | 0.00 | 0.00 | 29 | 1006.9 |
| 20260503212502 | 21 | 283 | 16.1 | 27.4 | 0.00 | 0.00 | 0.00 | 28 | 1006.9 |
| 20260503212006 | 22 | 309 | 17.7 | 27.4 | 0.00 | 0.00 | 0.00 | 27 | 1006.9 |
| 20260503211512 | 21 | 342 | 16.1 | 30.6 | 0.00 | 0.00 | 0.00 | 27 | 1006.9 |
| 20260503211006 | 21 | 313 | 19.3 | 30.6 | 0.00 | 0.00 | 0.00 | 27 | 1007.0 |
| 20260503210505 | 21 | 293 | 12.9 | 24.1 | 0.00 | 0.00 | 0.00 | 30 | 1007.0 |
| 20260503210017 | 21 | 285 | 14.5 | 25.7 | 0.00 | 0.00 | 0.00 | 29 | 1006.9 |
| 20260503205507 | 22 | 307 | 16.1 | 29.0 | 0.00 | 0.00 | 0.00 | 29 | 1007.0 |
| 20260503205008 | 21 | 307 | 20.9 | 29.0 | 0.00 | 0.00 | 0.00 | 26 | 1007.1 |
| 20260503204524 | 21 | 278 | 11.3 | 32.2 | 0.00 | 0.00 | 0.00 | 30 | 1007.1 |
| 20260503204011 | 22 | 297 | 24.1 | 32.2 | 0.00 | 0.00 | 0.00 | 27 | 1007.1 |
| 20260503203511 | 22 | 9 | 24.1 | 30.6 | 0.00 | 0.00 | 0.00 | 25 | 1007.1 |
| 20260503203030 | 21 | 314 | 8.0 | 30.6 | 0.00 | 0.00 | 0.00 | 29 | 1007.1 |
| 20260503202509 | 22 | 297 | 19.3 | 30.6 | 0.00 | 0.00 | 0.00 | 28 | 1007.3 |
| 20260503202014 | 22 | 333 | 19.3 | 32.2 | 0.00 | 0.00 | 0.00 | 27 | 1007.4 |
| 20260503201528 | 22 | 300 | 19.3 | 33.8 | 0.00 | 0.00 | 0.00 | 27 | 1007.3 |
| 20260503201008 | 22 | 338 | 25.7 | 33.8 | 0.00 | 0.00 | 0.00 | 26 | 1007.4 |
| 20260503200505 | 21 | 313 | 17.7 | 27.4 | 0.00 | 0.00 | 0.00 | 28 | 1007.3 |
| 20260503200016 | 21 | 295 | 16.1 | 35.4 | 0.00 | 0.00 | 0.00 | 28 | 1007.4 |
| 20260503195506 | 22 | 321 | 25.7 | 35.4 | 0.00 | 0.00 | 0.00 | 28 | 1007.4 |
| 20260503195008 | 22 | 319 | 25.7 | 33.8 | 0.00 | 0.00 | 0.00 | 27 | 1007.5 |
| 20260503194522 | 21 | 321 | 22.5 | 38.6 | 0.00 | 0.00 | 0.00 | 29 | 1007.4 |
| 20260503194005 | 21 | 319 | 20.9 | 38.6 | 0.00 | 0.00 | 0.00 | 29 | 1007.5 |
| 20260503193511 | 21 | 318 | 17.7 | 33.8 | 0.00 | 0.00 | 0.00 | 28 | 1007.4 |
| 20260503193026 | 21 | 306 | 22.5 | 38.6 | 0.00 | 0.00 | 0.00 | 29 | 1007.4 |
| 20260503192509 | 22 | 329 | 25.7 | 38.6 | 0.00 | 0.00 | 0.00 | 28 | 1007.4 |
| 20260503192009 | 22 | 304 | 22.5 | 38.6 | 0.00 | 0.00 | 0.00 | 29 | 1007.5 |
| 20260503191527 | 21 | 331 | 20.9 | 38.6 | 0.00 | 0.00 | 0.00 | 29 | 1007.6 |
| 20260503191010 | 21 | 314 | 19.3 | 37.0 | 0.00 | 0.00 | 0.00 | 31 | 1007.5 |
| 20260503190512 | 22 | 319 | 24.1 | 37.0 | 0.00 | 0.00 | 0.00 | 28 | 1007.5 |
| 20260503190030 | 21 | 328 | 25.7 | 38.6 | 0.00 | 0.00 | 0.00 | 26 | 1007.5 |
| 20260503185506 | 21 | 321 | 24.1 | 38.6 | 0.00 | 0.00 | 0.00 | 30 | 1007.6 |
| 20260503185006 | 21 | 310 | 27.4 | 38.6 | 0.00 | 0.00 | 0.00 | 28 | 1007.6 |
| 20260503184516 | 21 | 303 | 24.1 | 40.2 | 0.00 | 0.00 | 0.00 | 28 | 1007.5 |
| 20260503184007 | 21 | 300 | 17.7 | 40.2 | 0.00 | 0.00 | 0.00 | 31 | 1007.5 |
| 20260503183509 | 21 | 319 | 27.4 | 35.4 | 0.00 | 0.00 | 0.00 | 29 | 1007.5 |
| 20260503183034 | 21 | 299 | 22.5 | 40.2 | 0.00 | 0.00 | 0.00 | 30 | 1007.6 |
| 20260503182509 | 21 | 319 | 33.8 | 40.2 | 0.00 | 0.00 | 0.00 | 29 | 1007.5 |
| 20260503182010 | 21 | 307 | 22.5 | 33.8 | 0.00 | 0.00 | 0.00 | 31 | 1007.6 |
| 20260503181527 | 21 | 297 | 17.7 | 30.6 | 0.00 | 0.00 | 0.00 | 35 | 1007.6 |
| 20260503181012 | 21 | 326 | 20.9 | 33.8 | 0.00 | 0.00 | 0.00 | 33 | 1007.6 |
| 20260503180509 | 20 | 316 | 24.1 | 33.8 | 0.00 | 0.00 | 0.00 | 34 | 1007.7 |
| 20260503180031 | 20 | 303 | 24.1 | 33.8 | 0.00 | 0.00 | 0.00 | 33 | 1007.6 |
| 20260503175509 | 20 | 291 | 19.3 | 37.0 | 0.00 | 0.00 | 0.00 | 36 | 1007.7 |
| 20260503175018 | 20 | 308 | 27.4 | 37.0 | 0.00 | 0.00 | 0.00 | 34 | 1007.7 |
| 20260503174529 | 21 | 340 | 22.5 | 41.8 | 0.00 | 0.00 | 0.00 | 35 | 1007.8 |
| 20260503174011 | 21 | 309 | 24.1 | 48.3 | 0.00 | 0.00 | 0.00 | 35 | 1007.8 |
| 20260503173503 | 21 | 337 | 30.6 | 48.3 | 0.00 | 0.00 | 0.00 | 34 | 1007.7 |
| 20260503173018 | 20 | 328 | 25.7 | 41.8 | 0.00 | 0.00 | 0.00 | 34 | 1007.8 |
| 20260503172502 | 20 | 339 | 35.4 | 41.8 | 0.00 | 0.00 | 0.00 | 33 | 1007.8 |
| 20260503172002 | 20 | 342 | 32.2 | 41.8 | 0.00 | 0.00 | 0.00 | 35 | 1007.8 |
| 20260503171502 | 20 | 347 | 33.8 | 41.8 | 0.00 | 0.00 | 0.00 | 34 | 1007.9 |
| 20260503171003 | 20 | 322 | 32.2 | 41.8 | 0.00 | 0.00 | 0.00 | 35 | 1008.0 |
| 20260503170505 | 20 | 321 | 29.0 | 48.3 | 0.00 | 0.00 | 0.00 | 38 | 1008.0 |
| 20260503151004 | 15 | 287 | 12.9 | 30.6 | 0.00 | 0.00 | 0.00 | 52 | 1007.3 |
| 20260503150503 | 15 | 311 | 17.7 | 30.6 | 0.00 | 0.00 | 0.00 | 51 | 1007.3 |